カタログに戻る

STARLINK-36051

運用中通信VLEO
NORAD 66793·PAYLOAD·🇺🇸 United States

打ち上げ Dec 1, 2025 から Cape Canaveral Space Force Station

Loading…

次のパス (今後24時間)

TLE

最新Source: CelesTrak SupGP

元期: Sep 15, 2026, 02:47 UTC

1 66793C 25278C   26258.11645833  .00069550  00000+0  25206-2 0  2588
2 66793  43.0027 124.7130 0001179 263.5548 254.1101 15.27524181    19

AllMySatでSTARLINK-36051をリアルタイム追跡

Download on the App Store